Regional Weather Roundup
Issued by NWS Glasgow, MT

Home | Current Version | Previous Version | Text Only | Print | Product List | Glossary On
Versions: 1 2 3 4 5 6 7 8 9 10 11 12 13 14 15 16 17 18 19 20 21 22 23 24 25 26 27 28 29 30 31 32 33 34 35 36 37 38 39 40 41 42 43 44 45 46 47 48 49 50
000
ASUS45 KGGW 230015
RWRGGW
HOURLY WEATHER ROUNDUP FOR NORTHEAST MONTANA
NATIONAL WEATHER SERVICE GLASGOW MONTANA
600 PM MDT MON SEP 22 2014

NOTE: "FAIR" INDICATES FEW OR NO CLOUDS BELOW 12,000 FEET WITH NO
SIGNIFICANT WEATHER AND/OR OBSTRUCTIONS TO VISISBILITY.

NORTHEAST MONTANA


CITY           SKY/WX    TMP DP  RH WIND       PRES   REMARKS
GLASGOW        CLEAR     79  48  33 S7        29.83S
6HR MIN TEMP:  70; 6HR MAX TEMP:  82;

PLENTYWOOD       N/A     80  37  21 SE12        N/A
WOLF POINT     CLEAR     82  51  34 SE3       29.83S
JORDAN           N/A     76  51  41 S6        29.85S
WINNETT          N/A     73  53  49 NW1         N/A
SIDNEY         CLEAR    N/A N/A N/A S8        29.86F
GLENDIVE       PTCLDY    72  54  53 NE7       29.87F
MALTA            N/A     85  51  31 S2          N/A
SCOBEY           N/A     81  45  28 SE9       29.87S
OPHEIM           N/A     75  45  33 S1        29.66S

FORT PECK REPORTS


CITY           SKY/WX    TMP DP  RH WIND       PRES   REMARKS
FORT PECK        N/A     79  53  40 SE10        N/A
THE PINES        N/A     81  46  29 SE3         N/A

SOUTHEAST MONTANA


CITY           SKY/WX    TMP DP  RH WIND       PRES   REMARKS
BILLINGS       PTSUNNY   81  44  27 W8        29.90F
MILES CITY     PTCLDY    80  48  32 NW7       29.84S
BAKER          PTCLDY    72  49  44 SE12      29.90F
LIVINGSTON     CLOUDY    70  48  45 W13       30.01S

CENTRAL MONTANA


CITY           SKY/WX    TMP DP  RH WIND       PRES   REMARKS
HAVRE          MOSUNNY   80  49  33 S5        29.81F
LEWISTOWN      PTSUNNY   72  55  55 E5        29.93S
GREAT FALLS    MOSUNNY   76  49  38 SW13      29.88S
CUT BANK       MOSUNNY   82  41  23 NW8       29.88S
HELENA         PTSUNNY   75  51  43 E14       29.94S
BUTTE          CLOUDY    66  47  50 W3        30.08F
BOZEMAN        CLOUDY    67  53  61 CALM      30.03F

WESTERN MONTANA


CITY           SKY/WX    TMP DP  RH WIND       PRES   REMARKS
MISSOULA       SUNNY     83  40  21 N12       29.92R
KALISPELL      NOT AVBL

NORTH DAKOTA


CITY           SKY/WX    TMP DP  RH WIND       PRES   REMARKS
WILLISTON      CLEAR     80  48  32 SE8       29.87S
DICKINSON      MOCLDY    71  51  49 SE12      29.90F
MINOT          CLEAR     77  46  33 SE9       29.91F
BISMARCK       PTCLDY    71  49  45 SE8       29.95S

SOUTHERN SASKATCHEWAN


CITY           SKY/WX    TMP DP  RH WIND       PRES   REMARKS
REGINA         CLEAR     75  50  41 S10       29.85R
MOOSE JAW      PTCLDY    77  54  44 SE9       29.82S
ESTEVAN        CLEAR     75  50  41 S12       29.89F
SWIFT CURRENT  SUNNY     77  46  33 SE12G18   29.80S



USA.gov is the U.S. government's official web portal to all federal, state and local government web resources and services.